Regional Weather Roundup
Issued by NWS

Home | Current Version | Previous Version | Graphics & Text | Print | Product List | Glossary On
Versions: 1 2 3 4 5 6 7 8 9 10 11 12 13 14 15 16 17 18 19 20 21 22 23 24 25 26 27 28 29 30 31 32 33 34 35 36 37 38 39 40 41 42 43 44 45 46 47 48 49 50
423
ASUS43 KMKX 282211
RWRWI

WISCONSIN REGIONAL WEATHER ROUNDUP
NATIONAL WEATHER SERVICE MILWAUKEE/SULLIVAN WI
500 PM CDT SUN MAY 28 2017

NOTE: "FAIR" INDICATES FEW OR NO CLOUDS BELOW 12,000 FEET WITH NO
SIGNIFICANT WEATHER AND/OR OBSTRUCTIONS TO VISIBILITY.

WIZ001-002-006>008-014>016-023>028-282300-
NORTHWEST WISCONSIN

CITY           SKY/WX    TMP DP  RH WIND       PRES   REMARKS
SUPERIOR ARPT  NOT AVBL
ASHLAND        CLOUDY    58  55  90 S7        29.64S
HAYWARD        LGT RAIN  56  50  80 W6        29.69R
SIREN          CLOUDY    63  47  55 W13G20    29.71S
CUMBERLAND     CLOUDY    59  48  67 NW10      29.71S
RICE LAKE      LGT RAIN  58  51  77 W6        29.73R
CHETEK         CLOUDY    62  52  71 NW8G16    29.72S
LADYSMITH      PTSUNNY   66  48  51 W14       29.69S
EAU CLAIRE     CLOUDY    66  47  50 NW10      29.70R
MENOMONIE      MOSUNNY   68  48  49 W13G20    29.71S
NEW RICHMOND   PTSUNNY   66  46  48 W10       29.71S
OSCEOLA        PTSUNNY   69  48  47 NW25G32   29.75R
$$

WIZ003>005-009-010-017-018-282300-
NORTH CENTRAL WISCONSIN

CITY           SKY/WX    TMP DP  RH WIND       PRES   REMARKS
MANITOWISH WTR PTSUNNY   64  49  56 NW8       29.64S
ARBOR VITAE    PTSUNNY   63  47  56 NW8       29.64S
WOODRUFF       PTSUNNY   63  47  56 NW8       29.64S
RHINELANDER    MOSUNNY   70  43  37 W18G28    29.65R
EAGLE RIVER    PTSUNNY   60  50  70 N8        29.65R
LAND O LAKES   MOSUNNY   61  50  66 N9G16     29.67S
PHILLIPS       CLOUDY    66  43  42 W7G18     29.65S
TOMAHAWK       MOSUNNY   67  42  38 W14G22    29.66S
MEDFORD        PTSUNNY   67  44  43 W14G22    29.68S
MERRILL        PTSUNNY   67  44  43 W17G26    29.66S
$$

WIZ029-030-035-036-043>047-282300-
CENTRAL WISCONSIN

CITY           SKY/WX    TMP DP  RH WIND       PRES   REMARKS
WAUSAU         MOSUNNY   69  44  40 W21G30    29.66R
MOSINEE        MOSUNNY   68  45  42 W17G31    29.69R
MARSHFIELD     PTSUNNY   67  45  45 NW18      29.68S
STEVENS POINT  MOSUNNY   68  43  40 W21G28    29.68R
WAUPACA        MOSUNNY   76  43  30 W16G28    29.64S
WAUTOMA        MOSUNNY   74  45  35 W22G29    29.67
WISC RAPIDS    SUNNY     72  44  36 NW21G35   29.70R
CAMP DOUGLAS   MOSUNNY   69  49  48 NW16G23   29.70R
$$

WIZ011>013-019>022-031-037>040-048>050-282300-
NORTHEAST WISCONSIN

CITY           SKY/WX    TMP DP  RH WIND       PRES   REMARKS
ANTIGO         MOSUNNY   67  47  49 W16G24    29.65R
SHAWANO        MOSUNNY   76  46  34 W14G26    29.62S
OCONTO         PTSUNNY   72  53  50 SW12G17   29.61S
STURGEON BAY   SUNNY     63  56  78 S17       29.64F
GREEN BAY      MOSUNNY   72  57  59 S14G21    29.62F
MANITOWOC      SUNNY     61  55  81 S13       29.67F
APPLETON       PTSUNNY   73  48  40 SW17G23   29.63F
CLINTONVILLE   PTSUNNY   73  43  33 W14G28    29.63R
OSHKOSH        MOSUNNY   74  53  48 SW9G21    29.64F
$$

WIZ032>034-041-042-053>061-282300-
SOUTHWEST WISCONSIN

CITY           SKY/WX    TMP DP  RH WIND       PRES   REMARKS
LA CROSSE      PTSUNNY   75  47  36 NW16      29.72S
SPARTA         MOSUNNY   71  44  37 W17G24    29.72S
VIROQUA        MOSUNNY   70  43  37 SW13      29.75S
BOSCOBEL       MOSUNNY   77  45  32 W10G20    29.74R
PRAIRIE DU CHI MOSUNNY   76  39  25 W14G25    29.73F
PLATTEVILLE    MOSUNNY   75  45  34 W16G31    29.76R
$$

WIZ056-057-062-063-064-067-068-282300-
SOUTH CENTRAL WISCONSIN

CITY           SKY/WX    TMP DP  RH WIND       PRES   REMARKS
REEDSBURG      MOSUNNY   72  48  42 W17       29.71R
BARABOO/DELLS  MOSUNNY   72  44  36 W14G25    29.71R
LONE ROCK      PTSUNNY   74  45  35 W18G25    29.72R
MINERAL POINT  SUNNY     73  43  33 W16G25    29.74S
MADISON        MOSUNNY   75  44  33 VRB7G24   29.69S
MIDDLETON      MOSUNNY   75  43  32 W17G25    29.71R
WATERTOWN      MOSUNNY   73  56  55 SW9       29.68F
MONROE         SUNNY     73  41  31 W16G26    29.73S
JANESVILLE     PTSUNNY   73  54  49 W15G21    29.71F
$$

WIZ051-052-058>065-066-070>072-282300-
SOUTHEAST WISCONSIN

CITY           SKY/WX    TMP DP  RH WIND       PRES   REMARKS
MILWAUKEE      MOSUNNY   75  53  46 W13       29.70F
WAUKESHA       MOSUNNY   72  54  53 W12G23    29.71F
MILWAUKEE/TIMM MOSUNNY   73  50  43 SW14G20   29.70F
RACINE         SUNNY     74  51  44 W14       29.72F
KENOSHA        SUNNY     73  54  51 W14       29.71F
FOND DU LAC    MOSUNNY   71  53  52 S14       29.66F
SHEBOYGAN      MOSUNNY   72  58  61 SW15      29.66F
WEST BEND      MOSUNNY   72  52  49 SW10      29.68F
JUNEAU         PTSUNNY   71  57  61 S7        29.69F
$$

LSZ147-162-282300-
LAKE SUPERIOR

STATION/POSITION TIME  TEMP    WIND        PRES    WAVE
                       AIR SEA DIR/SP/G            HT/PER
                 (UTC) (F)     (DEG/KT/KT) (MB)    (FT/S)
W MID LAKE BUOY  2050   50 38  220/  6/  8 1003.6F   0
DEVILS ISLAND    2200   55     210/  4/  5 1003.9F
PORT WING        1940   57      20/  2/  2 1004.1
SAXON HARBOR     2130   54      60/  4/  4 1004.1F
$$

LMZ867-665-643>646-282300-
LAKE MICHIGAN

STATION/POSITION TIME  TEMP    WIND        PRES    WAVE
                       AIR SEA DIR/SP/G            HT/PER
                 (UTC) (F)     (DEG/KT/KT) (MB)    (FT/S)
CHAMBERS ISLAND  2140   65     130/  7/ 12 1002.7F
N MID LAKE BUOY  2150   45 42  180/  8/ 10 1005.1F   0
NORTHPORT PIER   2140   55     150/ 10/ 16 1003.7F
KEWAUNEE LAKESHO 2142   50     170/ 11/ 13 1004.1F
SHEBOYGAN LAKESH 2200   50     170/ 14/ 16 1004.7F
PORT WASHINGTON  2140   56     170/  6/  8 1006.4F
ATWATER BUOY     2109   51     150/  8/ 10 1005.9F
MILWAUKEE LAKESH 2150   52     140/  5/  6   N/A
S MID LAKE BUOY  2050   51 50  320/  6/  6 1006.7F   0
KENOSHA   LAKESH 2200   56     160/  9/ 10 1006.1
$$

TC  - TEMPERATURE IN CELSIUS
VSB - VISIBILITY IN STATUTE MILES
WCI - WIND CHILL INDEX
HX  - HEAT INDEX





USA.gov is the U.S. government's official web portal to all federal, state and local government web resources and services.